Villarrubia, Spain

2:07 PM CEST on August 17, 2017 (GMT +0200)
Villarrubia

Weather History for 08410 - March, 2014

Change the Weather History Date:

Thursday, March 27, 2014

  Actual Average Record
Temperature  
Mean Temperature 50 °F -  
Max Temperature 63 °F - - ()
Min Temperature 37 °F - - ()
Degree Days  
Heating Degree Days 15    
Moisture  
Dew Point 35 °F    
Average Humidity 51    
Maximum Humidity 84    
Minimum Humidity 19    
Precipitation  
Precipitation 0.00 in 0.08 in - ()
Sea Level Pressure  
Sea Level Pressure 29.92 in    
Wind  
Wind Speed 4 mph ()    
Max Wind Speed 14 mph    
Max Gust Speed -    
Visibility 9.0 miles    
Events      
T = Trace of Precipitation, MM = Missing Value Source: Averaged Metar Reports

Daily Weather History Graph

Daily Weather History Graph

Search for Another Location

Airport or City:

Trip Planner

Search our weather history database for the weather conditions in past years. The results will help you decide how hot, cold, wet, or windy it might be!

Date:

Astronomy

Mar. 27, 2014 Rise Set
Actual Time 7:12 AM CET 7:37 PM CET
Civil Twilight 6:46 AM CET 8:03 PM CET
Nautical Twilight 6:15 AM CET 8:34 PM CET
Astronomical Twilight 5:43 AM CET 9:06 PM CET
Moon 4:50 AM CET (3/27) 4:12 PM CET (3/27)
Length of Visible Light 13h 17m
Length of Day
12h 25m
Waning Crescent, 15% of the Moon is Illuminated
Mar 27
Waning Crescent
Mar 30
New
Apr 7
First Quarter
Apr 15
Full
Apr 22
Last Quarter

Hourly Weather History & Observations

Time (CET) Temp. Dew Point Humidity Pressure Visibility Wind Dir Wind Speed Gust Speed Precip Events Conditions
12:00 AM 48 °F 35 °F 49% 30.06 in - SSW 4.6 mph - -  
1:00 AM 45 °F 35 °F 59% 30.06 in - SW 4.6 mph - -  
2:00 AM 43 °F 36 °F 69% 30.05 in - Calm Calm - -  
3:00 AM 42 °F 35 °F 70% 30.04 in - Calm Calm - -  
4:00 AM 41 °F 35 °F 72% 30.02 in - Calm Calm - -  
5:00 AM 40 °F 35 °F 74% 30.01 in - Calm Calm - -  
6:00 AM 38 °F 34 °F 81% 30.01 in - NNE 1.2 mph - -  
7:00 AM 37 °F 34 °F 84% 30.01 in 19 mi Calm Calm - -  
7:00 AM 37.4 °F 32.0 °F 81% 29.98 in - Calm Calm - N/A   Clear
8:00 AM 39 °F 35 °F 82% 30.02 in - Calm Calm - -  
8:00 AM 39.2 °F 33.8 °F 81% 30.01 in - Calm Calm - N/A   Clear
9:00 AM 45 °F 38 °F 67% 30.02 in - SSW 2.3 mph - -  
9:00 AM 44.6 °F 37.4 °F 76% 30.01 in - Variable 2.3 mph - N/A   Clear
10:00 AM 52 °F 40 °F 52% 30.01 in 25 mi SSE 2.3 mph - -   Partly Cloudy
10:00 AM 50.0 °F 37.4 °F 62% 29.98 in - Variable 2.3 mph - N/A   Clear
11:00 AM 56 °F 40 °F 43% 30.00 in - South 2.3 mph - -  
11:00 AM 53.6 °F 39.2 °F 58% 29.98 in 6.2 mi SSE 1.2 mph - N/A   Scattered Clouds
12:00 PM 58 °F 41 °F 42% 29.97 in - West 6.9 mph - -  
12:00 PM 57.2 °F 39.2 °F 51% 29.95 in 6.2 mi West 6.9 mph - N/A   Partly Cloudy
1:00 PM 58 °F 40 °F 41% 29.94 in 25 mi WSW 8.1 mph - -   Scattered Clouds
1:00 PM 57.2 °F 39.2 °F 51% 29.92 in 6.2 mi WSW 6.9 mph - N/A   Partly Cloudy
2:00 PM 61 °F 39 °F 33% 29.91 in - West 11.5 mph - -  
2:00 PM 59.0 °F 37.4 °F 45% 29.89 in 6.2 mi West 11.5 mph - N/A   Scattered Clouds
3:00 PM 61 °F 38 °F 31% 29.88 in - SW 11.5 mph - -  
3:00 PM 60.8 °F 35.6 °F 39% 29.86 in 6.2 mi WSW 12.7 mph - N/A   Scattered Clouds
4:00 PM 63 °F 37 °F 26% 29.84 in 25 mi WSW 10.4 mph - -   Partly Cloudy
4:00 PM 62.6 °F 33.8 °F 34% 29.83 in 6.2 mi WSW 10.4 mph - N/A   Scattered Clouds
5:00 PM 62 °F 33 °F 22% 29.81 in - WSW 13.8 mph - -  
5:00 PM 62.6 °F 32.0 °F 32% 29.80 in 6.2 mi WSW 13.8 mph - N/A   Partly Cloudy
6:00 PM 62 °F 31 °F 19% 29.79 in - SW 11.5 mph - -  
6:00 PM 60.8 °F 32.0 °F 34% 29.77 in - WSW 11.5 mph - N/A   Clear
7:00 PM 58 °F 29 °F 21% 29.79 in 25 mi SW 11.5 mph - -   Partly Cloudy
7:00 PM 59.0 °F 28.4 °F 31% 29.77 in - SW 11.5 mph - N/A   Clear
8:00 PM 53 °F 32 °F 32% 29.79 in - SW 5.8 mph - -  
8:00 PM 51.8 °F 30.2 °F 44% 29.77 in - SW 4.6 mph - N/A   Clear
9:00 PM 48 °F 35 °F 50% 29.80 in - SSW 4.6 mph - -  
10:00 PM 47 °F 37 °F 58% 29.80 in 19 mi WSW 3.5 mph - -   Scattered Clouds
11:00 PM 47 °F 35 °F 53% 29.80 in - Calm Calm - -